Weather History for Marathon, FL

Change the Weather History Date:

Saturday, February 23, 2013

  Actual Average Record
Temperature  
Mean Temperature 81 °F 72 °F  
Max Temperature 85 °F 77 °F 87 °F (2008)
Min Temperature 76 °F 67 °F 55 °F (1999)
Degree Days  
Heating Degree Days 0 1  
Month to date heating degree days 7 19  
Since 1 July heating degree days 13 78  
Cooling Degree Days 16 8  
Month to date cooling degree days 202 161  
Year to date cooling degree days 530 342  
Growing Degree Days 30 (Base 50)    
Moisture  
Dew Point 70 °F    
Average Humidity 76    
Maximum Humidity 87    
Minimum Humidity 65    
Precipitation  
Precipitation 0.00 in 0.09 in 1.02 in (2002)
Month to date precipitation 1.81 1.84  
Year to date precipitation 2.35 3.45  
Snow  
Snow 0.00 in - - ()
Month to date snowfall 0.0  
Since 1 July snowfall 0.0  
Snow Depth 0.00 in    
Sea Level Pressure  
Sea Level Pressure 29.99 in    
Wind  
Wind Speed 6 mph (SSE)    
Max Wind Speed 13 mph    
Max Gust Speed 21 mph    
Visibility 10 miles    
Events      
T = Trace of Precipitation, MM = Missing Value Source: NWS Daily Summary

Daily Weather History Graph

Daily Weather History Graph

Search for Another Location

Airport:

Trip Planner

Search our weather history database for the weather conditions in past years. The results will help you decide how hot, cold, wet, or windy it might be!

Date:

Astronomy

Feb. 23, 2013 Rise Set
Actual Time 6:51 AM EST 6:23 PM EST
Civil Twilight 6:28 AM EST 6:46 PM EST
Nautical Twilight 6:02 AM EST 7:13 PM EST
Astronomical Twilight 5:35 AM EST 7:39 PM EST
Moon 4:38 PM EST 5:05 AM EST
Length of Visible Light 12h 17m
Length of Day
11h 31m
Waxing Gibbous, 95% of the Moon is Illuminated
Feb 23
Waxing Gibbous
Feb 25
Full
Mar 4
Last Quarter
Mar 11
New
Mar 19
First Quarter

Hourly Weather History & Observations

Time (EST) Temp. Heat Index Dew Point Humidity Pressure Visibility Wind Dir Wind Speed Gust Speed Precip Events Conditions
12:53 AM 75.9 °F - 69.1 °F 79% 30.03 in 10.0 mi SE 9.2 mph - N/A   Clear
1:53 AM 75.9 °F - 69.1 °F 79% 30.01 in 10.0 mi SE 6.9 mph - N/A   Scattered Clouds
2:12 AM 75.2 °F - 69.8 °F 83% 30.00 in 10.0 mi SSE 11.5 mph 17.3 mph N/A   Mostly Cloudy
2:21 AM 75.2 °F - 68.0 °F 78% 30.00 in 10.0 mi SE 9.2 mph 19.6 mph N/A   Scattered Clouds
2:53 AM 75.9 °F - 68.0 °F 76% 29.99 in 10.0 mi SE 8.1 mph - N/A   Clear
3:53 AM 75.9 °F - 68.0 °F 76% 29.98 in 10.0 mi SE 8.1 mph 17.3 mph N/A   Clear
4:53 AM 75.9 °F - 69.1 °F 79% 29.98 in 10.0 mi SE 8.1 mph - N/A   Clear
5:53 AM 75.9 °F - 69.1 °F 79% 29.98 in 10.0 mi SE 8.1 mph - N/A   Mostly Cloudy
6:53 AM 75.9 °F - 69.1 °F 79% 29.99 in 10.0 mi SE 9.2 mph 19.6 mph N/A   Partly Cloudy
7:53 AM 77.0 °F - 70.0 °F 79% 30.00 in 10.0 mi SE 8.1 mph 16.1 mph N/A   Scattered Clouds
8:53 AM 77.0 °F - 70.0 °F 79% 30.01 in 10.0 mi SE 8.1 mph - N/A   Scattered Clouds
9:53 AM 80.1 °F 83.2 °F 70.0 °F 71% 30.02 in 10.0 mi SE 8.1 mph - N/A   Mostly Cloudy
10:53 AM 81.0 °F 84.9 °F 71.1 °F 72% 30.03 in 10.0 mi SSE 8.1 mph - N/A   Mostly Cloudy
11:01 AM 80.6 °F 84.6 °F 71.6 °F 74% 30.02 in 10.0 mi SE 6.9 mph - N/A   Mostly Cloudy
11:33 AM 82.4 °F 87.2 °F 71.6 °F 70% 30.02 in 10.0 mi Variable 6.9 mph - N/A   Scattered Clouds
11:53 AM 82.9 °F 87.5 °F 71.1 °F 67% 30.02 in 10.0 mi SSE 5.8 mph - N/A   Partly Cloudy
12:53 PM 84.0 °F 89.6 °F 72.0 °F 67% 29.99 in 10.0 mi SSE 4.6 mph - N/A   Partly Cloudy
1:53 PM 82.9 °F 87.5 °F 71.1 °F 67% 29.97 in 10.0 mi SSE 9.2 mph - N/A   Clear
2:53 PM 82.9 °F 87.0 °F 70.0 °F 65% 29.96 in 10.0 mi South 6.9 mph - N/A   Clear
3:53 PM 82.0 °F 85.9 °F 70.0 °F 67% 29.95 in 10.0 mi SSE 3.5 mph - N/A   Partly Cloudy
4:53 PM 80.1 °F 83.2 °F 70.0 °F 71% 29.94 in 10.0 mi SSE 5.8 mph - N/A   Clear
5:53 PM 78.1 °F - 70.0 °F 76% 29.95 in 10.0 mi Calm Calm - N/A   Clear
6:53 PM 77.0 °F - 69.1 °F 76% 29.95 in 10.0 mi Calm Calm - N/A   Scattered Clouds
7:53 PM 77.0 °F - 70.0 °F 79% 29.96 in 10.0 mi Calm Calm - N/A   Clear
8:53 PM 77.0 °F - 71.1 °F 82% 29.99 in 10.0 mi Calm Calm - N/A   Scattered Clouds
9:53 PM 75.9 °F - 71.1 °F 85% 29.99 in 9.0 mi Calm Calm - N/A   Scattered Clouds
10:53 PM 75.9 °F - 71.1 °F 85% 29.99 in 9.0 mi SSE 3.5 mph - N/A   Partly Cloudy
11:53 PM 77.0 °F - 72.0 °F 84% 29.99 in 10.0 mi SSE 4.6 mph - N/A   Overcast